Location: Ellingshausen
(50.5460°N, 10.4723°E)
Time: 00:42:41
(UTC+00:00)

RUBIN 8/PSLV - Pass Details

Date: 18 January 2026
Orbit: 593 x 628 km, 98.1° (Epoch: 18 February)

Event Time Altitude Azimuth Distance (km) Brightness Sun altitude
Rises 05:12:55 0° 13° (NNE) 2,846 8.0 -18.1°
Reaches altitude 10° 05:15:05 10° 12° (NNE) 1,940 7.1 -17.8°
Maximum altitude 05:19:17 79° 288° (WNW) 613 4.3 -17.1°
Drops below altitude 10° 05:23:28 10° 201° (SSW) 1,932 7.0 -16.5°
Sets 05:25:38 0° 200° (SSW) 2,834 7.9 -16.2°
